This is the latest recevied weather packets stored in our database for station/object KE8RXN. If no packets are shown the sender has not sent any weather packets the latest 10 day(s).
| Time | Temp. | Humidity | Pressure | Rain* | Wind** | Luminosity | Snow |
|---|---|---|---|---|---|---|---|
| 1777504305 | 7.22° C | 93% | 1016.8 hPa | 0 mm | - | 7 W/m² | - |
| 1777504000 | 7.22° C | 93% | 1016.6 hPa | 0 mm | - | 14 W/m² | - |
| 1777503697 | 7.22° C | 94% | 1016.8 hPa | 0 mm | - | 25 W/m² | - |
| 1777503394 | 7.22° C | 94% | 1016.7 hPa | 0 mm | - | 26 W/m² | - |
| 1777503090 | 7.22° C | 94% | 1016.9 hPa | 0 mm | - | 28 W/m² | - |
| 1777502787 | 7.22° C | 94% | 1016.7 hPa | 0 mm | - | 27 W/m² | - |
| 1777502484 | 7.22° C | 95% | 1016.7 hPa | 0 mm | - | 27 W/m² | - |
| 1777502181 | 7.22° C | 95% | 1016.6 hPa | 0 mm | - | 25 W/m² | - |
| 1777501879 | 7.22° C | 95% | 1016.7 hPa | 0 mm | - | 30 W/m² | - |
| 1777501576 | 7.78° C | 96% | 1016.6 hPa | 0 mm | - | 22 W/m² | - |
| 1777501273 | 7.22° C | 96% | 1016.6 hPa | 0 mm | - | 15 W/m² | - |
| 1777500971 | 7.78° C | 96% | 1016.7 hPa | 0 mm | - | 34 W/m² | - |
| 1777500669 | 7.78° C | 96% | 1016.5 hPa | 0 mm | - | 43 W/m² | - |
| 1777500364 | 7.78° C | 96% | 1016.5 hPa | 0 mm | - | 52 W/m² | - |
| 1777500061 | 7.78° C | 96% | 1016.3 hPa | 0 mm | - | 72 W/m² | - |
| 1777499757 | 7.78° C | 97% | 1016.5 hPa | 0 mm | - | 78 W/m² | - |
| 1777499454 | 7.22° C | 97% | 1016.3 hPa | 0 mm | - | 85 W/m² | - |
| 1777499153 | 7.22° C | 97% | 1016.3 hPa | 0 mm | - | 75 W/m² | - |
| 1777498849 | 7.22° C | 97% | 1016.3 hPa | 0 mm | - | 57 W/m² | - |
| 1777498545 | 7.22° C | 98% | 1016.2 hPa | 0 mm | - | 61 W/m² | - |
| 1777498241 | 7.78° C | 98% | 1016.1 hPa | 0 mm | - | 71 W/m² | - |
| 1777497940 | 7.22° C | 98% | 1016.3 hPa | 0 mm | - | 64 W/m² | - |
| 1777497635 | 7.78° C | 98% | 1016.3 hPa | 0 mm | - | 59 W/m² | - |
| 1777497332 | 7.22° C | 98% | 1016.2 hPa | 0 mm | - | 92 W/m² | - |
| 1777497028 | 7.22° C | 98% | 1016.1 hPa | 0 mm | - | 85 W/m² | - |
* Rain latest hour (hover to see other rain measurements)
** Current wind speed in m/s (hover to see current wind gust speed)